When you browse on this site, cookies collect data to enhance your experience and personalize the content and advertising you see.
Visit our Privacy Policy to learn more. By continuing to use the site, you agree to this use of cookies and data.
  • In Österreich
  • Länderverzeichnis
  • Für 7 Tage
  • Wassertemperatur
  • Wetterkarte
  • News
  • Widgets
  • user-avatar
    Anmelden

    Stündliche Wetter San Carlos

    Heute, 25 Januar, Samstag

    Zeit Temperatur Niederschläge Wind Luftdruck Luftfeuchtigkeit
    00:00 +24°C° 0 mm 1 m/S 745 mmHg 68%
    01:00 +24°C° 0 mm 1 m/S 744 mmHg 69%
    02:00 +24°C° 0 mm 1 m/S 744 mmHg 70%
    03:00 +23°C° 0 mm 1 m/S 744 mmHg 71%
    04:00 +23°C° 0 mm 1 m/S 744 mmHg 73%
    05:00 +24°C° 0 mm 1 m/S 745 mmHg 71%
    06:00 +24°C° 0 mm 1 m/S 745 mmHg 69%
    07:00 +25°C° 0 mm 1 m/S 746 mmHg 67%
    08:00 +28°C° 0 mm 1 m/S 746 mmHg 57%
    09:00 +31°C° 0 mm 1 m/S 747 mmHg 47%
    10:00 +34°C° 0 mm 1 m/S 747 mmHg 37%
    11:00 +35°C° 0 mm 1 m/S 746 mmHg 34%
    12:00 +37°C° 0 mm 1 m/S 745 mmHg 30%
    13:00 +39°C° 0 mm 1 m/S 744 mmHg 27%
    14:00 +37°C° 0 mm 1 m/S 744 mmHg 27%
    15:00 +37°C° 0 mm 1 m/S 743 mmHg 28%
    16:00 +36°C° 0 mm 1 m/S 743 mmHg 29%
    17:00 +33°C° 0 mm 1 m/S 743 mmHg 37%
    18:00 +31°C° 0 mm 1 m/S 743 mmHg 45%
    19:00 +28°C° 0 mm 2 m/S 744 mmHg 54%
    20:00 +27°C° 0 mm 2 m/S 744 mmHg 56%
    21:00 +26°C° 0 mm 2 m/S 745 mmHg 59%
    22:00 +25°C° 0 mm 1 m/S 745 mmHg 62%
    23:00 +25°C° 0 mm 1 m/S 745 mmHg 63%

    Morgen, 26 Januar, Sonntag

    Zeit Temperatur Niederschläge Wind Luftdruck Luftfeuchtigkeit
    00:00 +24°C° 0 mm 1 m/S 745 mmHg 65%
    01:00 +24°C° 0 mm 1 m/S 744 mmHg 66%
    02:00 +24°C° 0 mm 1 m/S 744 mmHg 67%
    03:00 +24°C° 0 mm 1 m/S 744 mmHg 67%
    04:00 +23°C° 0 mm 1 m/S 744 mmHg 68%
    05:00 +24°C° 0 mm 1 m/S 744 mmHg 67%
    06:00 +25°C° 0 mm 1 m/S 745 mmHg 66%
    07:00 +25°C° 0 mm 1 m/S 745 mmHg 65%
    08:00 +28°C° 0 mm 1 m/S 746 mmHg 57%
    09:00 +31°C° 0 mm 1 m/S 746 mmHg 49%
    10:00 +34°C° 0 mm 1 m/S 747 mmHg 41%
    11:00 +35°C° 0 mm 1 m/S 746 mmHg 39%
    12:00 +36°C° 0 mm 1 m/S 745 mmHg 37%
    13:00 +39°C° 0 mm 1 m/S 744 mmHg 34%
    14:00 +37°C° 0 mm 1 m/S 744 mmHg 36%
    15:00 +36°C° 0 mm 1 m/S 743 mmHg 38%
    16:00 +35°C° 0 mm 1 m/S 743 mmHg 40%
    17:00 +33°C° 0 mm 1 m/S 743 mmHg 46%
    18:00 +32°C° 0 mm 1 m/S 743 mmHg 52%
    19:00 +30°C° 0 mm 1 m/S 744 mmHg 57%
    20:00 +29°C° 0 mm 1 m/S 744 mmHg 60%
    21:00 +28°C° 0 mm 1 m/S 745 mmHg 64%
    22:00 +28°C° 0 mm 1 m/S 745 mmHg 67%
    23:00 +27°C° 0 mm 1 m/S 745 mmHg 70%

    übermorgen, 27 Januar, Montag

    Zeit Temperatur Niederschläge Wind Luftdruck Luftfeuchtigkeit
    00:00 +26°C° 0 mm 1 m/S 745 mmHg 73%
    01:00 +25°C° 0 mm 1 m/S 744 mmHg 77%
    02:00 +25°C° 0 mm 1 m/S 744 mmHg 78%
    03:00 +25°C° 0 mm 1 m/S 744 mmHg 79%
    04:00 +25°C° 0 mm 1 m/S 744 mmHg 80%
    05:00 +25°C° 0 mm 1 m/S 745 mmHg 78%
    06:00 +26°C° 0 mm 1 m/S 745 mmHg 76%
    07:00 +26°C° 0 mm 1 m/S 746 mmHg 73%
    08:00 +29°C° 0 mm 1 m/S 746 mmHg 63%
    09:00 +32°C° 0 mm 1 m/S 746 mmHg 52%
    10:00 +35°C° 0 mm 1 m/S 747 mmHg 41%
    11:00 +36°C° 0 mm 1 m/S 746 mmHg 38%
    12:00 +37°C° 0 mm 1 m/S 745 mmHg 35%
    13:00 +40°C° 0 mm 1 m/S 744 mmHg 31%
    14:00 +39°C° 0 mm 1 m/S 743 mmHg 32%
    15:00 +37°C° 0 mm 1 m/S 743 mmHg 34%
    16:00 +36°C° 0 mm 1 m/S 742 mmHg 35%
    17:00 +34°C° 0 mm 1 m/S 743 mmHg 42%
    18:00 +32°C° 0 mm 1 m/S 743 mmHg 50%
    19:00 +30°C° 0 mm 1 m/S 744 mmHg 58%
    20:00 +29°C° 0 mm 1 m/S 744 mmHg 62%
    21:00 +28°C° 0 mm 1 m/S 744 mmHg 66%
    22:00 +27°C° 0 mm 2 m/S 745 mmHg 71%
    23:00 +27°C° 0 mm 1 m/S 744 mmHg 72%

    28 Januar, Dienstag

    Zeit Temperatur Niederschläge Wind Luftdruck Luftfeuchtigkeit
    00:00 +26°C° 0 mm 1 m/S 744 mmHg 74%
    01:00 +25°C° 0 mm 1 m/S 744 mmHg 75%
    02:00 +25°C° 0 mm 1 m/S 744 mmHg 75%
    03:00 +24°C° 0 mm 1 m/S 744 mmHg 76%
    04:00 +24°C° 0 mm 1 m/S 744 mmHg 76%
    05:00 +24°C° 0 mm 1 m/S 745 mmHg 74%
    06:00 +25°C° 0 mm 1 m/S 745 mmHg 73%
    07:00 +25°C° 0 mm 1 m/S 746 mmHg 71%
    08:00 +28°C° 0 mm 1 m/S 746 mmHg 60%
    09:00 +31°C° 0 mm 1 m/S 746 mmHg 50%
    10:00 +34°C° 0 mm 1 m/S 746 mmHg 40%
    11:00 +36°C° 0 mm 1 m/S 746 mmHg 36%
    12:00 +37°C° 0 mm 1 m/S 745 mmHg 32%
    13:00 +40°C° 0 mm 1 m/S 744 mmHg 29%
    14:00 +39°C° 0 mm 1 m/S 743 mmHg 29%
    15:00 +37°C° 0 mm 1 m/S 743 mmHg 30%
    16:00 +37°C° 0 mm 1 m/S 742 mmHg 30%
    17:00 +34°C° 0 mm 1 m/S 742 mmHg 38%
    18:00 +32°C° 0 mm 1 m/S 743 mmHg 46%
    19:00 +29°C° 0 mm 2 m/S 743 mmHg 55%
    20:00 +28°C° 0 mm 2 m/S 743 mmHg 57%
    21:00 +27°C° 0 mm 1 m/S 744 mmHg 60%
    22:00 +26°C° 0 mm 1 m/S 744 mmHg 63%
    23:00 +25°C° 0 mm 1 m/S 744 mmHg 65%

    29 Januar, Mittwoch

    Zeit Temperatur Niederschläge Wind Luftdruck Luftfeuchtigkeit
    00:00 +25°C° 0 mm 2 m/S 743 mmHg 67%
    01:00 +24°C° 0 mm 2 m/S 743 mmHg 69%
    02:00 +24°C° 0 mm 2 m/S 743 mmHg 73%
    03:00 +23°C° 0 mm 1 m/S 743 mmHg 76%
    04:00 +23°C° 0 mm 1 m/S 743 mmHg 80%
    05:00 +24°C° 0 mm 1 m/S 744 mmHg 79%
    06:00 +24°C° 0 mm 1 m/S 745 mmHg 77%
    07:00 +25°C° 0 mm 1 m/S 745 mmHg 76%
    08:00 +29°C° 0 mm 1 m/S 746 mmHg 63%
    09:00 +32°C° 0 mm 1 m/S 746 mmHg 50%
    10:00 +36°C° 0 mm 1 m/S 746 mmHg 38%
    11:00 +37°C° 0 mm 1 m/S 745 mmHg 34%
    12:00 +39°C° 0 mm 1 m/S 744 mmHg 30%
    13:00 +40°C° 0 mm 1 m/S 744 mmHg 26%
    14:00 +40°C° 0 mm 1 m/S 743 mmHg 26%
    15:00 +39°C° 0 mm 1 m/S 742 mmHg 27%
    16:00 +39°C° 0 mm 1 m/S 742 mmHg 27%
    17:00 +35°C° 0 mm 1 m/S 742 mmHg 37%
    18:00 +34°C° 0 mm 2 m/S 743 mmHg 46%
    19:00 +30°C° 0 mm 2 m/S 743 mmHg 56%
    20:00 +29°C° 0 mm 2 m/S 743 mmHg 60%
    21:00 +29°C° 0 mm 2 m/S 744 mmHg 64%
    22:00 +28°C° 0 mm 1 m/S 744 mmHg 68%
    23:00 +27°C° 0 mm 1 m/S 744 mmHg 70%

    30 Januar, Donnerstag

    Zeit Temperatur Niederschläge Wind Luftdruck Luftfeuchtigkeit
    00:00 +27°C° 0 mm 1 m/S 744 mmHg 73%
    01:00 +26°C° 0 mm 1 m/S 743 mmHg 76%
    02:00 +26°C° 0 mm 1 m/S 743 mmHg 77%
    03:00 +25°C° 0 mm 1 m/S 743 mmHg 78%
    04:00 +25°C° 0 mm 1 m/S 743 mmHg 79%
    05:00 +26°C° 0 mm 1 m/S 744 mmHg 78%
    06:00 +26°C° 0 mm 1 m/S 745 mmHg 76%
    07:00 +27°C° 0 mm 1 m/S 745 mmHg 74%
    08:00 +29°C° 0 mm 1 m/S 745 mmHg 64%
    09:00 +32°C° 0 mm 1 m/S 746 mmHg 54%
    10:00 +35°C° 0 mm 1 m/S 746 mmHg 44%
    11:00 +36°C° 0 mm 1 m/S 745 mmHg 39%
    12:00 +39°C° 0 mm 2 m/S 744 mmHg 34%
    13:00 +40°C° 0 mm 2 m/S 743 mmHg 29%
    14:00 +39°C° 0 mm 2 m/S 743 mmHg 31%
    15:00 +38°C° 0 mm 2 m/S 742 mmHg 32%
    16:00 +37°C° 0 mm 2 m/S 742 mmHg 34%
    17:00 +35°C° 0 mm 2 m/S 742 mmHg 42%
    18:00 +33°C° 0 mm 1 m/S 743 mmHg 50%
    19:00 +31°C° 0 mm 1 m/S 743 mmHg 57%
    20:00 +30°C° 0 mm 1 m/S 743 mmHg 62%
    21:00 +28°C° 0 mm 1 m/S 744 mmHg 67%
    22:00 +27°C° 0 mm 1 m/S 744 mmHg 72%
    23:00 +27°C° 0 mm 1 m/S 744 mmHg 73%
    Mehr zeigen